{"data":{"norad_id":52664,"intl_designator":"2022-053J","name":"STARLINK-4070","alt_names":[],"object_type":"PAYLOAD","status":"ACTIVE","operator":null,"country":"US","launch_date":"2022-05-18","launch_site_code":"AFETR","launch_vehicle":null,"mission":null,"orbit_class":"UNKNOWN","rcs_meters":null,"size_class":null,"mass_kg":null,"dimensions":null,"purposes":["comms"],"wikipedia_slug":null,"has_3d_model":false,"image_url":null,"decayed_at":null,"tle_current":{"epoch":"2026-09-19T21:30:20.854080Z","epoch_age_seconds":118667,"freshness":"FRESH","line1":"1 52664U 22053J   26262.89607470  .00000085  00000+0  23430-4 0  9992","line2":"2 52664  53.1628   1.6335 0001069  94.4013 265.7101 15.08833341240368","mean_motion":15.08833341,"eccentricity":0.0001069,"inclination_deg":53.1628,"raan_deg":1.6335,"arg_perigee_deg":94.4013,"mean_anomaly_deg":265.7101,"bstar":2.343e-5,"rev_number":24036,"period_min":95.437975876489,"perigee_km":539.02421934857,"apogee_km":540.50326652741,"semimajor_km":6917.900742938,"source":"CELESTRAK","updated_at":"2026-09-20T09:00:40.101663Z"}}}